Regional Weather Roundup
Issued by NWS

Home | Current Version | Previous Version | Graphics & Text | Print | Product List | Glossary On
Versions: 1 2 3 4 5 6 7 8 9 10 11 12 13 14 15 16 17 18 19 20 21 22 23 24 25 26 27 28 29 30 31 32 33 34 35 36 37 38 39 40 41 42 43 44 45 46 47 48 49 50
000
ASUS45 KABQ 092110
RWRNM
WEATHER ROUNDUP FOR NEW MEXICO
NATIONAL WEATHER SERVICE ALBUQUERQUE NM
300 PM MDT WED JUL 09 2014

NOTE: "FAIR" MEANS FEW OR NO CLOUDS BELOW 12,000 FEET AGL WITH NO
       SIGNIFICANT WEATHER OR OBSTRUCTIONS TO VISION.

      THIS PRODUCT IS RELEASED AS TWO VERSIONS.  ONE VERSION NEAR
      THE TOP OF THE HOUR CONTAINING PRELIMINARY DATA FROM ALBUQUERQUE
      AND OTHER STATIONS.  A FINAL VERSION WITH ADDITIONAL DATA IS
      ISSUED ABOUT 10 MINUTES AFTER THE HOUR.

NMZ501-503-504-510>518-092200-
NORTHWEST PLATEAU/NORTHCENTRAL MOUNTAINS

CITY           SKY/WX    TMP DP  RH WIND       PRES   REMARKS
FARMINGTON     SUNNY     88  45  22 VRB6      30.11F
LOS ALAMOS     CLOUDY    70  51  51 W8        30.30S
SANTA FE       PTSUNNY   80  44  27 S17       30.21F
TAOS           MOSUNNY   75  43  31 SW6       30.27F
ANGEL FIRE     FAIR      75  43  31 S14       30.35F

$$
NMZ402-403-502-505>509-092200-
WESTCENTRAL MOUNTAINS/SOUTHWEST MOUNTAINS

CITY           SKY/WX    TMP DP  RH WIND       PRES   REMARKS
GALLUP         MOSUNNY   86  45  23 W9        30.19F
GRANTS         PTSUNNY   76  50  39 SE7       30.24F
SILVER CITY    PTSUNNY   86  45  23 S13       30.15F

$$
NMZ407-409-411-412-092200-
SOUTHERN DESERTS

CITY           SKY/WX    TMP DP  RH WIND       PRES   REMARKS
LORDSBURG      FAIR      88  52  29 CALM      30.05F
DEMING         PTSUNNY   92  52  25 S12G22    30.04F
LAS CRUCES     MOSUNNY   93  43  17 E10       30.06F
HOLLOMAN AFB   PTSUNNY   90  53  28 VRB5      30.04F
ALAMOGORDO     PTSUNNY   81  66  61 NE3       30.06F
T OR C         MOSUNNY   91  44  19 SE12      30.07F

$$
NMZ519>523-092200-
CENTRAL VALLEYS/CENTRAL HIGHLANDS

CITY           SKY/WX    TMP DP  RH WIND       PRES   REMARKS
ALBUQUERQUE    PTSUNNY   87  47  24 S8        30.14F
DOUBLE EAGLE   PTSUNNY   84  50  30 SW9       30.19F
MORIARTY ARPT  FAIR      77  50  39 NW9       30.23S
CLINES CORNERS PTSUNNY   78  47  33 W15       30.27S
BELEN          FAIR      87  47  25 NW3       30.12F
SOCORRO        FAIR      92  35  13 SE6G16    30.10F

$$
NMZ524>526-539-540-092200-
SOUTHCENTRAL MOUNTAINS

CITY           SKY/WX    TMP DP  RH WIND       PRES   REMARKS
RUIDOSO        MOSUNNY   81  45  28 SE12G21   30.28F

$$
NMZ527>531-092200-
NORTHEAST HIGHLANDS/NORTHEAST PLAINS

CITY           SKY/WX    TMP DP  RH WIND       PRES   REMARKS
LAS VEGAS        N/A     78  45  30 S16       30.27F
RATON            N/A    N/A N/A N/A MISG      30.16F
CLAYTON        MOSUNNY   90  48  23 S22G30    30.11F

$$
NMZ532>537-092200-
EASTCENTRAL PLAINS

CITY           SKY/WX    TMP DP  RH WIND       PRES   REMARKS
TUCUMCARI      MOSUNNY   94  49  21 S13       30.05F
CANNON AFB     MOSUNNY   89  56  32 S13G18    30.11F
CLOVIS AIRPORT NOT AVBL

$$
NMZ028-029-538-092200-
SOUTHEAST PLAINS

CITY           SKY/WX    TMP DP  RH WIND       PRES   REMARKS
ROSWELL        MOSUNNY   95  50  21 SE15G24   30.04F
ARTESIA        SUNNY     93  48  21 SE12      30.04F
CARLSBAD       SUNNY     96  46  18 SE16      30.01F
HOBBS          MOSUNNY   91  50  24 E14G23    30.08F


$$


USA.gov is the U.S. government's official web portal to all federal, state and local government web resources and services.